Year,Month,Day,Hour,Minute,Value (Times are PST for temperature in C)
2018,07,13,00,00,18.60
2018,07,13,00,01,18.60
2018,07,13,00,02,18.50
2018,07,13,00,03,18.50
2018,07,13,00,04,18.50
2018,07,13,00,05,18.40
2018,07,13,00,06,18.40
2018,07,13,00,07,18.40
2018,07,13,00,08,18.40
2018,07,13,00,09,18.40
2018,07,13,00,10,18.40
2018,07,13,00,11,18.30
2018,07,13,00,12,18.30
2018,07,13,00,13,18.30
2018,07,13,00,14,18.30
2018,07,13,00,15,18.30
2018,07,13,00,16,18.20
2018,07,13,00,17,18.20
2018,07,13,00,18,18.20
2018,07,13,00,19,18.20
2018,07,13,00,20,18.20
2018,07,13,00,21,18.20
2018,07,13,00,22,18.10
2018,07,13,00,23,18.10
2018,07,13,00,24,18.10
2018,07,13,00,25,18.10
2018,07,13,00,26,18.10
2018,07,13,00,27,18.10
2018,07,13,00,28,18.10
2018,07,13,00,29,18.00
2018,07,13,00,30,18.00
2018,07,13,00,31,18.00
2018,07,13,00,32,18.00
2018,07,13,00,33,17.90
2018,07,13,00,34,17.90
2018,07,13,00,35,17.90
2018,07,13,00,36,17.90
2018,07,13,00,37,17.90
2018,07,13,00,38,17.90
2018,07,13,00,39,17.90
2018,07,13,00,40,17.90
2018,07,13,00,41,17.90
2018,07,13,00,42,17.90
2018,07,13,00,43,17.90
2018,07,13,00,44,17.90
2018,07,13,00,45,17.90
2018,07,13,00,46,17.90
2018,07,13,00,47,17.80
2018,07,13,00,48,17.80
2018,07,13,00,49,17.80
2018,07,13,00,50,17.80
2018,07,13,00,51,17.80
2018,07,13,00,52,17.80
2018,07,13,00,53,17.80
2018,07,13,00,54,17.80
2018,07,13,00,55,17.80
2018,07,13,00,56,17.80
2018,07,13,00,57,17.70
2018,07,13,00,58,17.70
2018,07,13,00,59,17.70
2018,07,13,01,00,17.70
2018,07,13,01,01,17.70
2018,07,13,01,02,17.70
2018,07,13,01,03,17.70
2018,07,13,01,04,17.60
2018,07,13,01,05,17.60
2018,07,13,01,06,17.60
2018,07,13,01,07,17.60
2018,07,13,01,08,17.60
2018,07,13,01,09,17.60
2018,07,13,01,10,17.60
2018,07,13,01,11,17.60
2018,07,13,01,12,17.60
2018,07,13,01,13,17.50
2018,07,13,01,14,17.50
2018,07,13,01,15,17.50
2018,07,13,01,16,17.50
2018,07,13,01,17,17.40
2018,07,13,01,18,17.40
2018,07,13,01,19,17.40
2018,07,13,01,20,17.40
2018,07,13,01,21,17.40
2018,07,13,01,22,17.40
2018,07,13,01,23,17.40
2018,07,13,01,24,17.40
2018,07,13,01,25,17.30
2018,07,13,01,26,17.30
2018,07,13,01,27,17.30
2018,07,13,01,28,17.30
2018,07,13,01,29,17.30
2018,07,13,01,30,17.30
2018,07,13,01,31,17.30
2018,07,13,01,32,17.30
2018,07,13,01,33,17.30
2018,07,13,01,34,17.30
2018,07,13,01,35,17.30
2018,07,13,01,36,17.30
2018,07,13,01,37,17.30
2018,07,13,01,38,17.30
2018,07,13,01,39,17.30
2018,07,13,01,40,17.30
2018,07,13,01,41,17.30
2018,07,13,01,42,17.30
2018,07,13,01,43,17.30
2018,07,13,01,44,17.20
2018,07,13,01,45,17.20
2018,07,13,01,46,17.20
2018,07,13,01,47,17.20
2018,07,13,01,48,17.20
2018,07,13,01,49,17.20
2018,07,13,01,50,17.20
2018,07,13,01,51,17.10
2018,07,13,01,52,17.10
2018,07,13,01,53,17.10
2018,07,13,01,54,17.10
2018,07,13,01,55,17.10
2018,07,13,01,56,17.00
2018,07,13,01,57,17.00
2018,07,13,01,58,17.00
2018,07,13,01,59,17.00
2018,07,13,02,00,17.00
2018,07,13,02,01,16.90
2018,07,13,02,02,16.90
2018,07,13,02,03,16.90
2018,07,13,02,04,16.90
2018,07,13,02,05,16.90
2018,07,13,02,06,16.80
2018,07,13,02,07,16.80
2018,07,13,02,08,16.80
2018,07,13,02,09,16.80
2018,07,13,02,10,16.80
2018,07,13,02,11,16.80
2018,07,13,02,12,16.80
2018,07,13,02,13,16.80
2018,07,13,02,14,16.80
2018,07,13,02,15,16.70
2018,07,13,02,16,16.70
2018,07,13,02,17,16.70
2018,07,13,02,18,16.70
2018,07,13,02,19,16.70
2018,07,13,02,20,16.60
2018,07,13,02,21,16.60
2018,07,13,02,22,16.60
2018,07,13,02,23,16.60
2018,07,13,02,24,16.60
2018,07,13,02,25,16.50
2018,07,13,02,26,16.50
2018,07,13,02,27,16.40
2018,07,13,02,28,16.40
2018,07,13,02,29,16.40
2018,07,13,02,30,16.30
2018,07,13,02,31,16.30
2018,07,13,02,32,16.30
2018,07,13,02,33,16.20
2018,07,13,02,34,16.20
2018,07,13,02,35,16.20
2018,07,13,02,36,16.10
2018,07,13,02,37,16.10
2018,07,13,02,38,16.10
2018,07,13,02,39,16.00
2018,07,13,02,40,16.00
2018,07,13,02,41,15.90
2018,07,13,02,42,15.90
2018,07,13,02,43,15.90
2018,07,13,02,44,15.80
2018,07,13,02,45,15.80
2018,07,13,02,46,15.80
2018,07,13,02,47,15.70
2018,07,13,02,48,15.70
2018,07,13,02,49,15.60
2018,07,13,02,50,15.60
2018,07,13,02,51,15.60
2018,07,13,02,52,15.50
2018,07,13,02,53,15.50
2018,07,13,02,54,15.50
2018,07,13,02,55,15.50
2018,07,13,02,56,15.60
2018,07,13,02,57,15.60
2018,07,13,02,58,15.60
2018,07,13,02,59,15.60
2018,07,13,03,00,15.60
2018,07,13,03,01,15.60
2018,07,13,03,02,15.60
2018,07,13,03,03,15.60
2018,07,13,03,04,15.50
2018,07,13,03,05,15.50
2018,07,13,03,06,15.40
2018,07,13,03,07,15.40
2018,07,13,03,08,15.30
2018,07,13,03,09,15.30
2018,07,13,03,10,15.30
2018,07,13,03,11,15.20
2018,07,13,03,12,15.20
2018,07,13,03,13,15.20
2018,07,13,03,14,15.10
2018,07,13,03,15,15.10
2018,07,13,03,16,15.00
2018,07,13,03,17,15.00
2018,07,13,03,18,15.00
2018,07,13,03,19,14.90
2018,07,13,03,20,14.90
2018,07,13,03,21,14.90
2018,07,13,03,22,14.90
2018,07,13,03,23,14.80
2018,07,13,03,24,14.80
2018,07,13,03,25,14.80
2018,07,13,03,26,14.70
2018,07,13,03,27,14.70
2018,07,13,03,28,14.70
2018,07,13,03,29,14.60
2018,07,13,03,30,14.60
2018,07,13,03,31,14.60
2018,07,13,03,32,14.60
2018,07,13,03,33,14.50
2018,07,13,03,34,14.50
2018,07,13,03,35,14.40
2018,07,13,03,36,14.40
2018,07,13,03,37,14.40
2018,07,13,03,38,14.30
2018,07,13,03,39,14.30
2018,07,13,03,40,14.30
2018,07,13,03,41,14.30
2018,07,13,03,42,14.20
2018,07,13,03,43,14.20
2018,07,13,03,44,14.20
2018,07,13,03,45,14.10
2018,07,13,03,46,14.10
2018,07,13,03,47,14.00
2018,07,13,03,48,14.00
2018,07,13,03,49,14.00
2018,07,13,03,50,13.90
2018,07,13,03,51,13.90
2018,07,13,03,52,13.90
2018,07,13,03,53,13.80
2018,07,13,03,54,13.80
2018,07,13,03,55,13.80
2018,07,13,03,56,13.80
2018,07,13,03,57,13.80
2018,07,13,03,58,13.80
2018,07,13,03,59,13.70
2018,07,13,04,00,13.70
2018,07,13,04,01,13.70
2018,07,13,04,02,13.70
2018,07,13,04,03,13.60
2018,07,13,04,04,13.60
2018,07,13,04,05,13.60
2018,07,13,04,06,13.60
2018,07,13,04,07,13.60
2018,07,13,04,08,13.50
2018,07,13,04,09,13.50
2018,07,13,04,10,13.50
2018,07,13,04,11,13.50
2018,07,13,04,12,13.50
2018,07,13,04,13,13.40
2018,07,13,04,14,13.40
2018,07,13,04,15,13.40
2018,07,13,04,16,13.40
2018,07,13,04,17,13.30
2018,07,13,04,18,13.30
2018,07,13,04,19,13.30
2018,07,13,04,20,13.30
2018,07,13,04,21,13.30
2018,07,13,04,22,13.30
2018,07,13,04,23,13.30
2018,07,13,04,24,13.20
2018,07,13,04,25,13.20
2018,07,13,04,26,13.20
2018,07,13,04,27,13.10
2018,07,13,04,28,13.10
2018,07,13,04,29,13.10
2018,07,13,04,30,13.10
2018,07,13,04,31,13.00
2018,07,13,04,32,13.00
2018,07,13,04,33,13.00
2018,07,13,04,34,12.90
2018,07,13,04,35,12.90
2018,07,13,04,36,12.90
2018,07,13,04,37,12.90
2018,07,13,04,38,12.90
2018,07,13,04,39,12.80
2018,07,13,04,40,12.80
2018,07,13,04,41,12.80
2018,07,13,04,42,12.80
2018,07,13,04,43,12.80
2018,07,13,04,44,12.70
2018,07,13,04,45,12.70
2018,07,13,04,46,12.70
2018,07,13,04,47,12.70
2018,07,13,04,48,12.70
2018,07,13,04,49,12.70
2018,07,13,04,50,12.70
2018,07,13,04,51,12.60
2018,07,13,04,52,12.60
2018,07,13,04,53,12.60
2018,07,13,04,54,12.60
2018,07,13,04,55,12.60
2018,07,13,04,56,12.60
2018,07,13,04,57,12.60
2018,07,13,04,58,12.60
2018,07,13,04,59,12.60
2018,07,13,05,00,12.60
2018,07,13,05,01,12.50
2018,07,13,05,02,12.50
2018,07,13,05,03,12.50
2018,07,13,05,04,12.40
2018,07,13,05,05,12.40
2018,07,13,05,06,12.40
2018,07,13,05,07,12.40
2018,07,13,05,08,12.40
2018,07,13,05,09,12.40
2018,07,13,05,10,12.30
2018,07,13,05,11,12.30
2018,07,13,05,12,12.30
2018,07,13,05,13,12.30
2018,07,13,05,14,12.30
2018,07,13,05,15,12.30
2018,07,13,05,16,12.30
2018,07,13,05,17,12.30
2018,07,13,05,18,12.20
2018,07,13,05,19,12.20
2018,07,13,05,20,12.20
2018,07,13,05,21,12.20
2018,07,13,05,22,12.20
2018,07,13,05,23,12.20
2018,07,13,05,24,12.20
2018,07,13,05,25,12.10
2018,07,13,05,26,12.10
2018,07,13,05,27,12.10
2018,07,13,05,28,12.10
2018,07,13,05,29,12.10
2018,07,13,05,30,12.10
2018,07,13,05,31,12.10
2018,07,13,05,32,12.10
2018,07,13,05,33,12.00
2018,07,13,05,34,12.00
2018,07,13,05,35,12.00
2018,07,13,05,36,12.00
2018,07,13,05,37,12.00
2018,07,13,05,38,11.90
2018,07,13,05,39,11.90
2018,07,13,05,40,11.90
2018,07,13,05,41,11.90
2018,07,13,05,42,11.90
2018,07,13,05,43,11.90
2018,07,13,05,44,11.90
2018,07,13,05,45,11.90
2018,07,13,05,46,11.90
2018,07,13,05,47,11.90
2018,07,13,05,48,11.90
2018,07,13,05,49,11.90
2018,07,13,05,50,11.90
2018,07,13,05,51,11.90
2018,07,13,05,52,11.90
2018,07,13,05,53,11.90
2018,07,13,05,54,11.90
2018,07,13,05,55,11.90
2018,07,13,05,56,11.90
2018,07,13,05,57,11.90
2018,07,13,05,58,11.90
2018,07,13,05,59,11.90
2018,07,13,06,00,11.90
2018,07,13,06,01,11.90
2018,07,13,06,02,11.90
2018,07,13,06,03,11.90
2018,07,13,06,04,11.90
2018,07,13,06,05,11.90
2018,07,13,06,06,11.90
2018,07,13,06,07,11.90
2018,07,13,06,08,11.90
2018,07,13,06,09,11.90
2018,07,13,06,10,11.90
2018,07,13,06,11,11.90
2018,07,13,06,12,11.90
2018,07,13,06,13,11.90
2018,07,13,06,14,11.80
2018,07,13,06,15,11.80
2018,07,13,06,16,11.80
2018,07,13,06,17,11.80
2018,07,13,06,18,11.80
2018,07,13,06,19,11.80
2018,07,13,06,20,11.80
2018,07,13,06,21,11.80
2018,07,13,06,22,11.80
2018,07,13,06,23,11.80
2018,07,13,06,24,11.80
2018,07,13,06,25,11.80
2018,07,13,06,26,11.80
2018,07,13,06,27,11.80
2018,07,13,06,28,11.80
2018,07,13,06,29,11.80
2018,07,13,06,30,11.80
2018,07,13,06,31,11.80
2018,07,13,06,32,11.80
2018,07,13,06,33,11.80
2018,07,13,06,34,11.80
2018,07,13,06,35,11.80
2018,07,13,06,36,11.80
2018,07,13,06,37,11.80
2018,07,13,06,38,11.80
2018,07,13,06,39,11.80
2018,07,13,06,40,11.80
2018,07,13,06,41,11.80
2018,07,13,06,42,11.80
2018,07,13,06,43,11.80
2018,07,13,06,44,11.80
2018,07,13,06,45,11.80
2018,07,13,06,46,11.80
2018,07,13,06,47,11.80
2018,07,13,06,48,11.80
2018,07,13,06,49,11.80
2018,07,13,06,50,11.80
2018,07,13,06,51,11.80
2018,07,13,06,52,11.80
2018,07,13,06,53,11.80
2018,07,13,06,54,11.80
2018,07,13,06,55,11.90
2018,07,13,06,56,11.90
2018,07,13,06,57,11.90
2018,07,13,06,58,11.90
2018,07,13,06,59,12.00
2018,07,13,07,00,12.00
2018,07,13,07,01,12.10
2018,07,13,07,02,12.10
2018,07,13,07,03,12.20
2018,07,13,07,04,12.30
2018,07,13,07,05,12.30
2018,07,13,07,06,12.40
2018,07,13,07,07,12.40
2018,07,13,07,08,12.50
2018,07,13,07,09,12.60
2018,07,13,07,10,12.60
2018,07,13,07,11,12.70
2018,07,13,07,12,12.70
2018,07,13,07,13,12.80
2018,07,13,07,14,12.80
2018,07,13,07,15,12.80
2018,07,13,07,16,12.80
2018,07,13,07,17,12.90
2018,07,13,07,18,13.00
2018,07,13,07,19,13.00
2018,07,13,07,20,13.10
2018,07,13,07,21,13.20
2018,07,13,07,22,13.30
2018,07,13,07,23,13.30
2018,07,13,07,24,13.40
2018,07,13,07,25,13.50
2018,07,13,07,26,13.60
2018,07,13,07,27,13.60
2018,07,13,07,28,13.70
2018,07,13,07,29,13.80
2018,07,13,07,30,13.90
2018,07,13,07,31,14.00
2018,07,13,07,32,14.00
2018,07,13,07,33,14.10
2018,07,13,07,34,14.20
2018,07,13,07,35,14.30
2018,07,13,07,36,14.40
2018,07,13,07,37,14.50
2018,07,13,07,38,14.70
2018,07,13,07,39,14.70
2018,07,13,07,40,14.80
2018,07,13,07,41,14.80
2018,07,13,07,42,14.80
2018,07,13,07,43,14.90
2018,07,13,07,44,14.90
2018,07,13,07,45,15.00
2018,07,13,07,46,15.10
2018,07,13,07,47,15.10
2018,07,13,07,48,15.20
2018,07,13,07,49,15.20
2018,07,13,07,50,15.30
2018,07,13,07,51,15.30
2018,07,13,07,52,15.30
2018,07,13,07,53,15.30
2018,07,13,07,54,15.30
2018,07,13,07,55,15.40
2018,07,13,07,56,15.40
2018,07,13,07,57,15.50
2018,07,13,07,58,15.60
2018,07,13,07,59,15.60
2018,07,13,08,00,15.70
2018,07,13,08,02,15.80
2018,07,13,08,03,15.90
2018,07,13,08,04,15.90
2018,07,13,08,05,16.00
2018,07,13,08,06,16.10
2018,07,13,08,07,16.20
2018,07,13,08,08,16.20
2018,07,13,08,09,16.30
2018,07,13,08,10,16.40
2018,07,13,08,11,16.40
2018,07,13,08,12,16.50
2018,07,13,08,13,16.60
2018,07,13,08,14,16.60
2018,07,13,08,15,16.60
2018,07,13,08,16,16.60
2018,07,13,08,17,16.70
2018,07,13,08,18,16.80
2018,07,13,08,19,16.90
2018,07,13,08,20,17.00
2018,07,13,08,21,17.10
2018,07,13,08,22,17.20
2018,07,13,08,23,17.30
2018,07,13,08,24,17.30
2018,07,13,08,25,17.40
2018,07,13,08,26,17.40
2018,07,13,08,27,17.40
2018,07,13,08,28,17.40
2018,07,13,08,29,17.40
2018,07,13,08,30,17.30
2018,07,13,08,31,17.30
2018,07,13,08,32,17.30
2018,07,13,08,33,17.30
2018,07,13,08,34,17.40
2018,07,13,08,35,17.40
2018,07,13,08,36,17.40
2018,07,13,08,37,17.40
2018,07,13,08,38,17.40
2018,07,13,08,39,17.50
2018,07,13,08,40,17.50
2018,07,13,08,41,17.50
2018,07,13,08,42,17.60
2018,07,13,08,43,17.70
2018,07,13,08,44,17.70
2018,07,13,08,45,17.80
2018,07,13,08,46,17.80
2018,07,13,08,47,17.80
2018,07,13,08,48,17.80
2018,07,13,08,49,17.80
2018,07,13,08,50,17.90
2018,07,13,08,51,17.90
2018,07,13,08,52,18.00
2018,07,13,08,53,18.10
2018,07,13,08,54,18.10
2018,07,13,08,55,18.10
2018,07,13,08,56,18.10
2018,07,13,08,57,18.20
2018,07,13,08,58,18.20
2018,07,13,08,59,18.20
2018,07,13,09,00,18.20
2018,07,13,09,01,18.20
2018,07,13,09,02,18.30
2018,07,13,09,03,18.30
2018,07,13,09,04,18.30
2018,07,13,09,05,18.40
2018,07,13,09,06,18.50
2018,07,13,09,07,18.60
2018,07,13,09,08,18.70
2018,07,13,09,09,18.60
2018,07,13,09,10,18.60
2018,07,13,09,11,18.60
2018,07,13,09,12,18.60
2018,07,13,09,13,18.60
2018,07,13,09,14,18.60
2018,07,13,09,15,18.70
2018,07,13,09,16,18.70
2018,07,13,09,17,18.80
2018,07,13,09,18,18.80
2018,07,13,09,19,18.80
2018,07,13,09,20,18.90
2018,07,13,09,21,18.90
2018,07,13,09,22,19.00
2018,07,13,09,23,19.00
2018,07,13,09,24,19.10
2018,07,13,09,25,19.10
2018,07,13,09,26,19.10
2018,07,13,09,27,19.10
2018,07,13,09,28,19.10
2018,07,13,09,29,19.10
2018,07,13,09,30,19.10
2018,07,13,09,31,19.20
2018,07,13,09,32,19.30
2018,07,13,09,33,19.40
2018,07,13,09,34,19.50
2018,07,13,09,35,19.60
2018,07,13,09,36,19.60
2018,07,13,09,37,19.70
2018,07,13,09,38,19.70
2018,07,13,09,39,19.70
2018,07,13,09,40,19.70
2018,07,13,09,41,19.80
2018,07,13,09,42,19.80
2018,07,13,09,43,19.80
2018,07,13,09,44,19.80
2018,07,13,09,45,19.90
2018,07,13,09,46,19.90
2018,07,13,09,47,19.90
2018,07,13,09,48,20.00
2018,07,13,09,49,20.10
2018,07,13,09,50,20.10
2018,07,13,09,51,20.20
2018,07,13,09,52,20.30
2018,07,13,09,53,20.40
2018,07,13,09,54,20.40
2018,07,13,09,55,20.40
2018,07,13,09,56,20.50
2018,07,13,09,57,20.50
2018,07,13,09,58,20.60
2018,07,13,09,59,20.70
2018,07,13,10,00,20.70
2018,07,13,10,01,20.80
2018,07,13,10,02,20.90
2018,07,13,10,03,21.00
2018,07,13,10,04,21.00
2018,07,13,10,05,21.10
2018,07,13,10,06,21.10
2018,07,13,10,07,21.20
2018,07,13,10,08,21.20
2018,07,13,10,09,21.30
2018,07,13,10,10,21.30
2018,07,13,10,11,21.30
2018,07,13,10,12,21.30
2018,07,13,10,13,21.30
2018,07,13,10,14,21.30
2018,07,13,10,15,21.30
2018,07,13,10,16,21.40
2018,07,13,10,17,21.40
2018,07,13,10,18,21.40
2018,07,13,10,19,21.40
2018,07,13,10,20,21.40
2018,07,13,10,21,21.40
2018,07,13,10,22,21.50
2018,07,13,10,23,21.50
2018,07,13,10,24,21.50
2018,07,13,10,25,21.60
2018,07,13,10,26,21.70
2018,07,13,10,27,21.70
2018,07,13,10,28,21.70
2018,07,13,10,29,21.70
2018,07,13,10,30,21.70
2018,07,13,10,31,21.70
2018,07,13,10,32,21.80
2018,07,13,10,33,21.80
2018,07,13,10,34,21.80
2018,07,13,10,35,21.90
2018,07,13,10,36,21.90
2018,07,13,10,37,22.00
2018,07,13,10,38,22.10
2018,07,13,10,39,22.10
2018,07,13,10,40,22.20
2018,07,13,10,41,22.10
2018,07,13,10,42,22.20
2018,07,13,10,43,22.20
2018,07,13,10,44,22.20
2018,07,13,10,45,22.20
2018,07,13,10,46,22.20
2018,07,13,10,47,22.20
2018,07,13,10,48,22.20
2018,07,13,10,49,22.20
2018,07,13,10,50,22.20
2018,07,13,10,51,22.20
2018,07,13,10,52,22.20
2018,07,13,10,53,22.30
2018,07,13,10,54,22.30
2018,07,13,10,55,22.30
2018,07,13,10,56,22.40
2018,07,13,10,57,22.40
2018,07,13,10,58,22.40
2018,07,13,10,59,22.50
2018,07,13,11,00,22.60
2018,07,13,11,01,22.60
2018,07,13,11,02,22.60
2018,07,13,11,03,22.70
2018,07,13,11,04,22.70
2018,07,13,11,05,22.70
2018,07,13,11,06,22.80
2018,07,13,11,07,22.80
2018,07,13,11,08,22.90
2018,07,13,11,09,22.90
2018,07,13,11,10,23.00
2018,07,13,11,11,23.00
2018,07,13,11,12,23.10
2018,07,13,11,13,23.10
2018,07,13,11,14,23.10
2018,07,13,11,15,23.10
2018,07,13,11,16,23.10
2018,07,13,11,17,23.10
2018,07,13,11,18,23.20
2018,07,13,11,19,23.20
2018,07,13,11,20,23.20
2018,07,13,11,21,23.20
2018,07,13,11,22,23.30
2018,07,13,11,23,23.40
2018,07,13,11,24,23.50
2018,07,13,11,25,23.50
2018,07,13,11,26,23.60
2018,07,13,11,27,23.60
2018,07,13,11,28,23.70
2018,07,13,11,29,23.70
2018,07,13,11,30,23.70
2018,07,13,11,31,23.70
2018,07,13,11,32,23.70
2018,07,13,11,33,23.70
2018,07,13,11,34,23.70
2018,07,13,11,35,23.80
2018,07,13,11,36,23.80
2018,07,13,11,37,23.80
2018,07,13,11,38,23.80
2018,07,13,11,39,23.80
2018,07,13,11,40,23.80
2018,07,13,11,41,23.80
2018,07,13,11,42,23.80
2018,07,13,11,43,23.90
2018,07,13,11,44,24.00
2018,07,13,11,45,24.00
2018,07,13,11,46,24.10
2018,07,13,11,47,24.10
2018,07,13,11,48,24.10
2018,07,13,11,49,24.20
2018,07,13,11,50,24.20
2018,07,13,11,51,24.30
2018,07,13,11,52,24.30
2018,07,13,11,53,24.30
2018,07,13,11,54,24.30
2018,07,13,11,55,24.30
2018,07,13,11,56,24.30
2018,07,13,11,57,24.30
2018,07,13,11,58,24.30
2018,07,13,11,59,24.40
2018,07,13,12,00,24.40
2018,07,13,12,01,24.40
2018,07,13,12,02,24.40
2018,07,13,12,03,24.40
2018,07,13,12,04,24.50
2018,07,13,12,05,24.50
2018,07,13,12,06,24.50
2018,07,13,12,07,24.50
2018,07,13,12,08,24.50
2018,07,13,12,09,24.50
2018,07,13,12,10,24.60
2018,07,13,12,11,24.60
2018,07,13,12,12,24.70
2018,07,13,12,13,24.70
2018,07,13,12,14,24.70
2018,07,13,12,15,24.80
2018,07,13,12,16,24.80
2018,07,13,12,17,24.80
2018,07,13,12,18,24.80
2018,07,13,12,19,24.80
2018,07,13,12,20,24.80
2018,07,13,12,21,24.80
2018,07,13,12,22,24.80
2018,07,13,12,23,24.80
2018,07,13,12,24,24.80
2018,07,13,12,25,24.90
2018,07,13,12,26,24.90
2018,07,13,12,27,24.90
2018,07,13,12,28,25.00
2018,07,13,12,29,25.10
2018,07,13,12,30,25.10
2018,07,13,12,31,25.10
2018,07,13,12,32,25.10
2018,07,13,12,33,25.10
2018,07,13,12,34,25.10
2018,07,13,12,35,25.00
2018,07,13,12,36,25.00
2018,07,13,12,37,25.00
2018,07,13,12,38,25.00
2018,07,13,12,39,25.00
2018,07,13,12,40,25.10
2018,07,13,12,41,25.10
2018,07,13,12,42,25.20
2018,07,13,12,43,25.30
2018,07,13,12,44,25.30
2018,07,13,12,45,25.40
2018,07,13,12,46,25.50
2018,07,13,12,47,25.50
2018,07,13,12,48,25.60
2018,07,13,12,49,25.60
2018,07,13,12,50,25.60
2018,07,13,12,51,25.60
2018,07,13,12,52,25.70
2018,07,13,12,53,25.70
2018,07,13,12,54,25.80
2018,07,13,12,55,25.80
2018,07,13,12,56,25.90
2018,07,13,12,57,25.90
2018,07,13,12,58,25.90
2018,07,13,12,59,25.90
2018,07,13,13,00,26.00
2018,07,13,13,01,26.00
2018,07,13,13,02,26.00
2018,07,13,13,03,26.10
2018,07,13,13,04,26.10
2018,07,13,13,05,26.20
2018,07,13,13,06,26.20
2018,07,13,13,07,26.20
2018,07,13,13,08,26.20
2018,07,13,13,09,26.20
2018,07,13,13,10,26.20
2018,07,13,13,11,26.20
2018,07,13,13,12,26.30
2018,07,13,13,13,26.20
2018,07,13,13,14,26.30
2018,07,13,13,15,26.30
2018,07,13,13,16,26.40
2018,07,13,13,17,26.40
2018,07,13,13,18,26.40
2018,07,13,13,19,26.40
2018,07,13,13,20,26.40
2018,07,13,13,21,26.40
2018,07,13,13,22,26.30
2018,07,13,13,23,26.20
2018,07,13,13,24,26.20
2018,07,13,13,25,26.20
2018,07,13,13,26,26.20
2018,07,13,13,27,26.20
2018,07,13,13,28,26.30
2018,07,13,13,29,26.30
2018,07,13,13,30,26.30
2018,07,13,13,31,26.30
2018,07,13,13,32,26.40
2018,07,13,13,33,26.60
2018,07,13,13,34,26.80
2018,07,13,13,35,26.90
2018,07,13,13,36,27.00
2018,07,13,13,37,27.00
2018,07,13,13,38,26.90
2018,07,13,13,39,26.90
2018,07,13,13,40,26.90
2018,07,13,13,41,26.90
2018,07,13,13,42,26.90
2018,07,13,13,43,26.80
2018,07,13,13,44,26.80
2018,07,13,13,45,26.80
2018,07,13,13,46,26.70
2018,07,13,13,47,26.70
2018,07,13,13,48,26.70
2018,07,13,13,49,26.70
2018,07,13,13,50,26.70
2018,07,13,13,51,26.80
2018,07,13,13,52,26.80
2018,07,13,13,53,26.90
2018,07,13,13,54,27.00
2018,07,13,13,55,27.00
2018,07,13,13,56,26.90
2018,07,13,13,57,26.90
2018,07,13,13,58,26.90
2018,07,13,13,59,26.80
2018,07,13,14,00,26.90
2018,07,13,14,01,27.00
2018,07,13,14,02,27.00
2018,07,13,14,03,27.10
2018,07,13,14,04,27.20
2018,07,13,14,05,27.20
2018,07,13,14,06,27.20
2018,07,13,14,07,27.10
2018,07,13,14,08,27.10
2018,07,13,14,09,27.10
2018,07,13,14,10,27.20
2018,07,13,14,11,27.30
2018,07,13,14,12,27.30
2018,07,13,14,13,27.30
2018,07,13,14,14,27.40
2018,07,13,14,15,27.40
2018,07,13,14,16,27.40
2018,07,13,14,17,27.30
2018,07,13,14,18,27.30
2018,07,13,14,19,27.30
2018,07,13,14,20,27.20
2018,07,13,14,21,27.20
2018,07,13,14,22,27.20
2018,07,13,14,23,27.20
2018,07,13,14,24,27.20
2018,07,13,14,25,27.20
2018,07,13,14,26,27.20
2018,07,13,14,27,27.20
2018,07,13,14,28,27.20
2018,07,13,14,29,27.20
2018,07,13,14,30,27.20
2018,07,13,14,31,27.30
2018,07,13,14,32,27.30
2018,07,13,14,33,27.30
2018,07,13,14,34,27.30
2018,07,13,14,35,27.40
2018,07,13,14,36,27.40
2018,07,13,14,37,27.50
2018,07,13,14,38,27.50
2018,07,13,14,39,27.50
2018,07,13,14,40,27.50
2018,07,13,14,41,27.50
2018,07,13,14,42,27.60
2018,07,13,14,43,27.60
2018,07,13,14,44,27.60
2018,07,13,14,45,27.70
2018,07,13,14,46,27.80
2018,07,13,14,47,27.80
2018,07,13,14,48,27.80
2018,07,13,14,49,27.80
2018,07,13,14,50,27.80
2018,07,13,14,51,27.80
2018,07,13,14,52,27.80
2018,07,13,14,53,27.80
2018,07,13,14,54,27.80
2018,07,13,14,55,27.80
2018,07,13,14,56,27.80
2018,07,13,14,57,27.80
2018,07,13,14,58,27.80
2018,07,13,14,59,27.80
2018,07,13,15,00,27.80
2018,07,13,15,01,27.80
2018,07,13,15,02,27.70
2018,07,13,15,03,27.60
2018,07,13,15,04,27.50
2018,07,13,15,05,27.50
2018,07,13,15,06,27.40
2018,07,13,15,07,27.40
2018,07,13,15,08,27.40
2018,07,13,15,09,27.30
2018,07,13,15,10,27.30
2018,07,13,15,11,27.40
2018,07,13,15,12,27.40
2018,07,13,15,13,27.50
2018,07,13,15,14,27.50
2018,07,13,15,15,27.60
2018,07,13,15,16,27.60
2018,07,13,15,17,27.60
2018,07,13,15,18,27.70
2018,07,13,15,19,27.70
2018,07,13,15,20,27.70
2018,07,13,15,21,27.80
2018,07,13,15,22,27.70
2018,07,13,15,23,27.70
2018,07,13,15,24,27.70
2018,07,13,15,25,27.70
2018,07,13,15,26,27.70
2018,07,13,15,27,27.70
2018,07,13,15,28,27.70
2018,07,13,15,29,27.60
2018,07,13,15,30,27.70
2018,07,13,15,31,27.70
2018,07,13,15,32,27.60
2018,07,13,15,33,27.60
2018,07,13,15,34,27.70
2018,07,13,15,35,27.70
2018,07,13,15,36,27.70
2018,07,13,15,37,27.70
2018,07,13,15,38,27.60
2018,07,13,15,39,27.60
2018,07,13,15,40,27.50
2018,07,13,15,41,27.50
2018,07,13,15,42,27.50
2018,07,13,15,43,27.60
2018,07,13,15,44,27.70
2018,07,13,15,45,27.70
2018,07,13,15,46,27.70
2018,07,13,15,47,27.60
2018,07,13,15,48,27.50
2018,07,13,15,49,27.50
2018,07,13,15,50,27.40
2018,07,13,15,51,27.40
2018,07,13,15,52,27.40
2018,07,13,15,53,27.40
2018,07,13,15,54,27.50
2018,07,13,15,55,27.50
2018,07,13,15,56,27.50
2018,07,13,15,57,27.40
2018,07,13,15,58,27.40
2018,07,13,15,59,27.40
2018,07,13,16,00,27.50
2018,07,13,16,01,27.50
2018,07,13,16,02,27.60
2018,07,13,16,03,27.60
2018,07,13,16,04,27.70
2018,07,13,16,05,27.70
2018,07,13,16,06,27.70
2018,07,13,16,07,27.70
2018,07,13,16,08,27.70
2018,07,13,16,09,27.70
2018,07,13,16,10,27.70
2018,07,13,16,11,27.70
2018,07,13,16,12,27.70
2018,07,13,16,13,27.70
2018,07,13,16,14,27.80
2018,07,13,16,15,27.80
2018,07,13,16,16,27.90
2018,07,13,16,17,28.00
2018,07,13,16,18,28.10
2018,07,13,16,19,28.10
2018,07,13,16,20,28.10
2018,07,13,16,21,28.10
2018,07,13,16,22,28.10
2018,07,13,16,23,28.00
2018,07,13,16,24,28.00
2018,07,13,16,25,27.90
2018,07,13,16,26,27.90
2018,07,13,16,27,27.90
2018,07,13,16,28,27.90
2018,07,13,16,29,27.90
2018,07,13,16,30,27.80
2018,07,13,16,31,27.80
2018,07,13,16,32,27.90
2018,07,13,16,33,27.80
2018,07,13,16,34,27.80
2018,07,13,16,35,27.80
2018,07,13,16,36,27.80
2018,07,13,16,37,27.80
2018,07,13,16,38,27.80
2018,07,13,16,39,27.70
2018,07,13,16,40,27.70
2018,07,13,16,41,27.70
2018,07,13,16,42,27.70
2018,07,13,16,43,27.70
2018,07,13,16,44,27.70
2018,07,13,16,45,27.70
2018,07,13,16,46,27.70
2018,07,13,16,47,27.70
2018,07,13,16,48,27.80
2018,07,13,16,49,27.80
2018,07,13,16,50,27.80
2018,07,13,16,51,27.90
2018,07,13,16,52,27.90
2018,07,13,16,53,27.80
2018,07,13,16,54,27.80
2018,07,13,16,55,27.70
2018,07,13,16,56,27.70
2018,07,13,16,57,27.70
2018,07,13,16,58,27.60
2018,07,13,16,59,27.60
2018,07,13,17,00,27.60
2018,07,13,17,01,27.60
2018,07,13,17,02,27.60
2018,07,13,17,03,27.50
2018,07,13,17,04,27.50
2018,07,13,17,05,27.50
2018,07,13,17,06,27.50
2018,07,13,17,07,27.50
2018,07,13,17,08,27.50
2018,07,13,17,09,27.40
2018,07,13,17,10,27.40
2018,07,13,17,11,27.30
2018,07,13,17,12,27.30
2018,07,13,17,13,27.20
2018,07,13,17,14,27.20
2018,07,13,17,15,27.20
2018,07,13,17,16,27.20
2018,07,13,17,17,27.20
2018,07,13,17,18,27.30
2018,07,13,17,19,27.30
2018,07,13,17,20,27.30